Starlink 32193

operational
NORAD ID: 60428 Int'l Des: 2024-144 Owner: SPXS Country: US Constellation: starlink
LEOCIRCULAR

About Starlink 32193

Description loading...

Live Position

Loading 3D Globe...

Upcoming Passes

Altitude History

Altitude vs Time

uPlot chart will show altitude changes over time

Two-Line Element Set

1 60428U 24144D 25303.82907262 -.00000289 00000-0 23723-5 0 9996
2 60428 53.1620 100.5564 0000717 85.2524 274.8559 15.30192666 69465
Epoch: Oct 30, 2025 • Age: 5 hours

Current Status

Altitude 481.2 km
Velocity 7.63 km/s
Sub-Earth Point 52.85°N, 145.17°E
Launch Date Aug 12, 2024
Age 1.2 years
Type internet

Technical Details

Classification Payload
Mass 730.00 kg
Dry Mass 700.00 kg
Total Mass 730.00 kg
Length 0.30 m
Diameter 4.10 m
Span 29.00 m
Shape Box + pan
Manufacturer SPXS
Bus Type Starlink V2M
Phase Status In Orbit
Owner/State SPXS/US

Large Constellations

Loading constellations...